This demonstration page uses our WeatherBlox Daily Observations layout. Learn more.

Left ArrowRight Arrow

Hourly Observations for October 5, 2022

Temp ( °F °C ) Dew Point ( °F °C ) Humidity (%) Winds ( mph kmh ) Pressure ( in mb ) Visibility ( mi km ) Precip ( " mm )
12:15 am 00:15 Partly Cloudy 50 10.1 48 8.9 92 92 WNW 5 7 30.15 1021 10 16 0.00 0.00
12:35 am 00:35 Clear 49 9.5 47 8.5 93 93 W 5 7 30.16 1021 10 16 0.00 0.00
12:55 am 00:55 Clear 49 9.2 47 8.3 94 94 WNW 6 9 30.16 1021 10 16 0.00 0.00
1:15 am 01:15 Clear 49 9.6 48 8.7 94 94 WNW 7 11 30.16 1021 10 16 0.00 0.00
1:35 am 01:35 Clear 49 9.5 47 8.5 93 93 WNW 6 9 30.16 1021 10 16 0.00 0.00
1:55 am 01:55 Clear 49 9.5 47 8.6 94 94 NW 9 15 30.16 1021 10 16 0.00 0.00
2:15 am 02:15 Clear 49 9.2 47 8.4 95 95 NW 7 11 30.16 1021 10 16 0.00 0.00
2:35 am 02:35 Clear 49 9.3 47 8.3 93 93 NW 7 11 30.16 1021 10 16 0.00 0.00
2:55 am 02:55 Clear 48 8.7 46 8 95 95 NW 8 13 30.17 1022 10 16 0.00 0.00
3:15 am 03:15 Clear 47 8.5 46 7.7 95 95 NW 5 7 30.17 1022 10 16 0.00 0.00
3:35 am 03:35 Clear 47 8.3 46 7.6 95 95 WNW 3 6 30.18 1022 10 16 0.00 0.00
3:55 am 03:55 Clear 46 7.6 45 7 96 96 Calm 30.18 1022 10 16 0.00 0.00
4:15 am 04:15 Clear 46 7.7 45 7.2 97 97 NW 5 7 30.18 1022 10 16 0.00 0.00
4:35 am 04:35 Clear 45 7.2 44 6.7 97 97 NNW 5 7 30.19 1022 10 16 0.00 0.00
4:55 am 04:55 Clear 45 7.3 44 6.9 97 97 WNW 6 9 30.19 1022 10 16 0.00 0.00
5:15 am 05:15 Clear 45 7.2 44 6.7 97 97 NW 6 9 30.19 1022 10 16 0.00 0.00
5:35 am 05:35 Clear 45 7.2 44 6.7 97 97 NW 6 9 30.20 1023 10 16 0.00 0.00
5:55 am 05:55 Clear 45 7.3 44 6.8 97 97 WNW 7 11 30.20 1023 10 16 0.00 0.00
6:15 am 06:15 Clear 45 7.2 44 6.6 96 96 WNW 6 9 30.20 1023 10 16 0.00 0.00
6:35 am 06:35 Clear 45 7 44 6.5 97 97 NW 7 11 30.20 1023 10 16 0.00 0.00
6:55 am 06:55 Clear 45 7 44 6.5 97 97 NW 8 13 30.20 1023 10 16 0.00 0.00
7:15 am 07:15 Clear 45 7.3 44 6.7 96 96 NW 9 15 30.20 1023 10 16 0.00 0.00
7:35 am 07:35 Clear 45 7.4 44 6.7 95 95 W 8 13 30.21 1023 10 16 0.00 0.00
7:55 am 07:55 Sunny 45 7.3 44 6.7 96 96 W 9 15 30.21 1023 10 16 0.00 0.00
8:15 am 08:15 Sunny 46 7.9 45 7 94 94 WNW 7 11 30.20 1023 10 16 0.00 0.00
8:35 am 08:35 Sunny 48 8.7 46 7.7 93 93 WNW 8 13 30.20 1023 10 16 0.00 0.00
8:55 am 08:55 Sunny 50 9.9 47 8.6 92 92 W 10 17 30.19 1022 10 16 0.00 0.00
9:15 am 09:15 Sunny 51 10.8 48 9 89 89 WNW 12 19 30.19 1023 10 16 0.00 0.00
9:35 am 09:35 Sunny 54 12 49 9.6 85 85 WNW 9 15 30.18 1022 10 16 0.00 0.00
9:55 am 09:55 Sunny 55 12.8 49 9.6 81 81 WNW 7 11 30.18 1022 10 16 0.00 0.00
10:15 am 10:15 Sunny 58 14.2 50 10 76 76 WNW 8 13 30.16 1021 10 16 0.00 0.00
10:35 am 10:35 Sunny 60 15.5 51 10.5 72 72 W 8 13 30.15 1021 10 16 0.00 0.00
10:55 am 10:55 Sunny 63 17.1 52 11 67 67 NW 9 15 30.15 1021 10 16 0.00 0.00
11:15 am 11:15 Sunny 65 18.4 52 10.9 62 62 NW 10 17 30.13 1020 10 16 0.00 0.00
11:35 am 11:35 Sunny 68 19.8 50 10 53 53 NW 13 20 30.11 1020 10 16 0.00 0.00
11:55 am 11:55 Sunny 69 20.7 50 9.9 50 50 NNW 15 24 30.11 1020 10 16 0.00 0.00
12:15 pm 12:15 Sunny 70 21.3 50 9.8 48 48 WNW 13 20 30.10 1019 10 16 0.00 0.00
12:35 pm 12:35 Partly Cloudy 71 21.6 49 9.6 46 46 NW 12 19 30.09 1019 10 16 0.00 0.00
12:55 pm 12:55 Mostly Cloudy 71 21.7 49 9.2 45 45 NW 12 19 30.09 1019 10 16 0.00 0.00
1:15 pm 13:15 Mostly Cloudy 71 21.5 47 8.6 44 44 NNW 9 15 30.09 1019 10 16 0.00 0.00
1:35 pm 13:35 Partly Cloudy 70 21.2 47 8.6 44 44 NNW 12 19 30.08 1019 10 16 0.00 0.00
1:55 pm 13:55 Partly Cloudy 72 22.2 47 8.6 42 42 NW 8 13 30.07 1018 10 16 0.00 0.00
2:15 pm 14:15 Sunny 74 23.3 47 8.4 39 39 NW 9 15 30.05 1018 10 16 0.00 0.00
2:35 pm 14:35 Sunny 75 23.7 47 8.2 37 37 NNW 14 22 30.04 1017 10 16 0.00 0.00
2:55 pm 14:55 Mostly Cloudy 76 24.3 47 8.5 37 37 NNW 13 20 30.03 1017 10 16 0.00 0.00
3:15 pm 15:15 Mostly Cloudy 75 23.8 47 8.5 38 38 NNW 15 24 30.03 1017 10 16 0.00 0.00
3:35 pm 15:35 Mostly Cloudy 73 22.6 47 8.5 40 40 NNW 13 20 30.04 1017 10 16 0.00 0.00
3:55 pm 15:55 Mostly Cloudy 74 23.3 47 8.3 38 38 NNW 13 20 30.03 1017 10 16 0.00 0.00
4:15 pm 16:15 Mostly Cloudy 76 24.4 46 8 35 35 NNW 14 22 30.03 1017 10 16 0.00 0.00
4:35 pm 16:35 Partly Cloudy 76 24.5 47 8.1 35 35 NNW 8 13 30.01 1016 10 16 0.00 0.00
4:55 pm 16:55 Sunny 73 22.8 47 8.1 39 39 NW 8 13 30.03 1017 10 16 0.00 0.00
5:15 pm 17:15 Sunny 73 22.8 47 8.1 39 39 NNW 10 17 30.04 1017 10 16 0.00 0.00
5:35 pm 17:35 Partly Cloudy 73 22.8 46 7.8 38 38 N 6 9 30.04 1017 10 16 0.00 0.00
5:55 pm 17:55 Partly Cloudy 74 23.6 46 7.9 37 37 N 10 17 30.03 1017 10 16 0.00 0.00
6:15 pm 18:15 Sunny 73 22.8 47 8.2 39 39 N 7 11 30.05 1018 10 16 0.00 0.00
6:35 pm 18:35 Sunny 72 22.1 47 8.6 42 42 N 5 7 30.05 1018 10 16 0.00 0.00
6:55 pm 18:55 Partly Cloudy 69 20.3 48 9.1 49 49 NNE 6 9 30.08 1019 10 16 0.00 0.00
7:15 pm 19:15 Partly Cloudy 65 18.4 48 8.9 54 54 NNE 5 7 30.10 1019 10 16 0.00 0.00
7:35 pm 19:35 Clear 64 17.5 48 8.7 56 56 NNE 5 7 30.11 1020 10 16 0.00 0.00
7:55 pm 19:55 Clear 60 15.7 49 9.2 65 65 Calm 30.13 1020 10 16 0.00 0.00
8:15 pm 20:15 Clear 59 14.9 49 9.6 71 71 Calm 30.14 1021 10 16 0.00 0.00
8:35 pm 20:35 Clear 58 14.3 49 9.6 73 73 Calm 30.15 1021 7 11 0.00 0.00
8:55 pm 20:55 Clear 56 13.3 48 9 75 75 W 3 6 30.16 1021 10 16 0.00 0.00
9:15 pm 21:15 Clear 55 12.6 49 9.7 82 82 NW 3 6 30.18 1022 10 16 0.00 0.00
9:35 pm 21:35 Clear 53 11.8 48 8.7 81 81 NW 3 6 30.19 1022 10 16 0.00 0.00
9:55 pm 21:55 Clear 54 12.1 48 9 81 81 WNW 3 6 30.18 1022 10 16 0.00 0.00
10:15 pm 22:15 Clear 51 10.6 47 8.6 87 87 WNW 6 9 30.20 1023 10 16 0.00 0.00
10:35 pm 22:35 Clear 51 10.5 48 9 90 90 W 6 9 30.21 1023 10 16 0.00 0.00
10:55 pm 22:55 Clear 50 10 47 8.6 91 91 W 6 9 30.21 1023 10 16 0.00 0.00
11:15 pm 23:15 Clear 50 10.1 47 8.5 90 90 WNW 8 13 30.22 1023 10 16 0.00 0.00
11:35 pm 23:35 Clear 49 9.7 47 8.2 90 90 WNW 8 13 30.23 1024 10 16 0.00 0.00
11:55 pm 23:55 Clear 50 10.1 47 8.4 89 89 WNW 5 7 30.22 1023 10 16 0.00 0.00

Powered by AerisWeather